period_start,C,m1,H,J0,J1,J2,J3,J4,J5,JA,JB,JC,JD,JJ,JK,JN,#
2015-01-25 00:02:02,0.28,3.48,0.00,22.06,27.41,30.58,4.80,28.10,1011.74,2028.00,2246.89,2432.81,2640.11,350.38,347.49,12.25,0000 0000 0000 0000 000000
2015-01-25 00:07:04,0.28,3.49,0.00,22.02,27.38,30.55,4.80,28.17,1011.74,2028.01,2244.74,2431.25,2638.34,349.81,346.97,12.28,0000 0000 0000 0000 000000
2015-01-25 00:12:05,0.28,3.50,0.00,22.06,27.35,30.52,4.79,27.97,1011.74,2028.05,2242.72,2429.68,2636.56,349.56,346.59,12.31,0000 0000 0000 0000 000000
2015-01-25 00:17:06,0.33,3.51,0.00,22.04,27.32,30.50,4.82,28.31,1011.72,2028.25,2240.62,2428.11,2634.84,349.91,347.21,12.34,0000 0000 0000 0000 000000
2015-01-25 00:22:07,0.35,3.52,0.00,22.04,27.29,30.48,4.80,28.24,1011.70,2028.74,2238.68,2426.52,2633.17,350.16,347.29,12.37,0000 0000 0000 0000 000000
2015-01-25 00:27:08,0.31,3.53,0.00,21.99,27.26,30.44,4.80,28.24,1011.48,2028.93,2236.68,2424.87,2631.43,350.03,347.19,12.40,0000 0000 0000 0000 000000
2015-01-25 00:32:10,0.26,3.54,0.00,21.99,27.24,30.42,4.85,28.27,1011.25,2028.96,2234.72,2423.38,2629.70,350.08,347.26,12.42,0000 0000 0000 0000 000000
2015-01-25 00:37:11,0.29,3.54,0.00,21.99,27.21,30.38,4.84,28.56,1011.25,2028.98,2232.60,2421.74,2628.05,350.14,347.28,12.45,0000 0000 0000 0000 000000
2015-01-25 00:42:12,0.25,3.55,0.00,21.94,27.19,30.38,4.81,28.54,1011.11,2028.99,2230.58,2420.22,2626.37,350.27,347.32,12.48,0000 0000 0000 0000 000000
2015-01-25 00:47:14,0.40,3.56,0.00,21.89,27.16,30.38,4.85,28.58,1011.02,2028.99,2228.37,2418.29,2624.31,350.79,347.79,12.51,0000 0000 0000 0000 000000
2015-01-25 00:52:15,0.28,3.57,0.00,21.87,27.13,30.35,4.78,28.45,1010.89,2029.01,2225.91,2416.19,2622.09,350.03,346.89,12.54,0000 0000 0000 0000 000000
2015-01-25 00:57:17,0.33,3.58,0.00,21.84,27.11,30.33,4.80,28.77,1010.82,2029.13,2223.80,2414.61,2620.48,350.14,347.22,12.57,0000 0000 0000 0000 000000
2015-01-25 01:02:18,0.40,3.59,0.00,21.79,27.08,30.30,4.75,28.87,1010.77,2029.65,2221.61,2412.95,2618.76,349.51,346.66,12.60,0000 0000 0000 0000 000000
2015-01-25 01:07:19,0.32,3.60,0.00,21.73,27.06,30.27,4.87,29.01,1010.77,2029.93,2219.38,2411.28,2617.01,350.11,347.29,12.63,0000 0000 0000 0000 000000
2015-01-25 01:12:21,0.28,3.61,0.00,21.70,27.02,30.22,4.90,29.00,1010.78,2029.98,2217.21,2409.67,2615.35,350.31,347.44,12.66,0000 0000 0000 0000 000000
2015-01-25 01:17:22,0.30,3.62,0.00,21.65,27.00,30.20,4.86,28.85,1010.89,2029.99,2215.21,2408.00,2613.55,350.45,347.75,12.69,0000 0000 0000 0000 000000
2015-01-25 01:22:24,0.28,3.63,0.00,21.59,26.96,30.15,4.87,29.05,1010.98,2029.99,2213.13,2406.46,2611.81,350.39,347.76,12.72,0000 0000 0000 0000 000000
2015-01-25 01:27:25,0.30,3.64,0.00,21.53,26.93,30.08,4.83,29.00,1010.83,2030.04,2211.13,2404.79,2610.06,349.74,347.33,12.75,0000 0000 0000 0000 000000
2015-01-25 01:32:26,0.27,3.65,0.00,21.47,26.90,30.04,4.80,28.82,1010.88,2030.11,2209.14,2403.32,2608.41,349.84,347.33,12.78,0000 0000 0000 0000 000000
2015-01-25 01:37:28,0.40,3.66,0.00,21.42,26.86,30.01,4.89,29.06,1011.11,2030.51,2207.11,2401.72,2606.65,350.63,348.28,12.81,0000 0000 0000 0000 000000
2015-01-25 01:42:29,0.29,3.67,0.00,21.35,26.83,29.95,4.88,29.08,1011.01,2030.69,2205.07,2400.13,2604.81,350.57,348.32,12.84,0000 0000 0000 0000 000000
2015-01-25 01:47:30,0.30,3.67,0.00,21.30,26.79,29.88,4.91,29.02,1011.24,2030.96,2203.24,2398.67,2603.31,350.24,348.15,12.86,0000 0000 0000 0000 000000
2015-01-25 01:52:31,0.25,3.68,0.00,21.26,26.75,29.84,4.86,28.78,1011.24,2030.99,2201.33,2397.23,2601.71,350.14,347.73,12.89,0000 0000 0000 0000 000000
2015-01-25 01:57:32,0.27,3.69,0.00,21.24,26.71,29.79,4.85,28.81,1011.25,2031.00,2199.46,2395.78,2600.09,350.50,348.31,12.92,0000 0000 0000 0000 000000
2015-01-25 02:02:34,0.26,3.70,0.00,21.15,26.67,29.72,4.83,28.62,1011.26,2031.04,2197.53,2394.38,2598.51,350.46,348.49,12.95,0000 0000 0000 0000 000000
2015-01-25 02:07:35,0.36,3.71,0.00,21.07,26.63,29.64,4.79,28.50,1011.25,2031.43,2195.65,2392.90,2596.98,350.16,348.28,12.98,0000 0000 0000 0000 000000
2015-01-25 02:12:36,0.32,3.72,0.00,21.02,26.58,29.54,4.85,28.42,1011.33,2031.86,2193.76,2391.59,2595.50,350.29,348.68,13.01,0000 0000 0000 0000 000000
2015-01-25 02:17:37,0.27,3.73,0.00,21.00,26.54,29.55,4.79,28.51,1011.72,2031.98,2191.80,2390.08,2593.92,349.73,348.10,13.04,0000 0000 0000 0000 000000
2015-01-25 02:22:39,0.26,3.73,0.00,20.97,26.50,29.52,4.83,28.49,1011.73,2031.99,2189.99,2388.66,2592.40,349.95,348.32,13.07,0000 0000 0000 0000 000000
2015-01-25 02:27:40,0.23,3.74,0.00,20.93,26.45,29.49,4.86,28.48,1011.73,2031.99,2188.34,2387.35,2590.83,349.97,348.52,13.10,0000 0000 0000 0000 000000
2015-01-25 02:32:41,0.27,3.75,0.00,20.93,26.41,29.47,4.78,28.45,1011.67,2032.02,2186.54,2385.86,2589.29,350.18,348.61,13.13,0000 0000 0000 0000 000000
2015-01-25 02:37:43,0.28,3.76,0.00,20.93,26.37,29.44,4.82,28.63,1011.71,2032.08,2184.69,2384.49,2587.64,349.48,347.93,13.16,0000 0000 0000 0000 000000
2015-01-25 02:42:44,0.29,3.76,0.00,20.92,26.32,29.42,4.82,28.62,1011.73,2032.24,2182.81,2383.08,2586.03,349.55,348.01,13.19,0000 0000 0000 0000 000000
2015-01-25 02:47:45,0.37,3.78,0.00,20.95,26.28,29.41,4.82,28.57,1011.73,2032.88,2181.10,2381.65,2584.53,349.72,348.15,13.22,0000 0000 0000 0000 000000
2015-01-25 02:52:46,0.24,3.78,0.00,20.90,26.25,29.38,4.87,28.64,1011.76,2032.99,2179.28,2380.25,2582.91,350.38,348.85,13.25,0000 0000 0000 0000 000000
2015-01-25 02:57:47,0.26,3.79,0.00,20.91,26.21,29.39,4.84,28.60,1011.94,2032.99,2177.44,2378.82,2581.44,349.93,348.42,13.27,0000 0000 0000 0000 000000
2015-01-25 03:02:49,0.26,3.80,0.00,20.94,26.18,29.34,4.81,28.57,1012.09,2032.99,2175.68,2377.51,2579.80,350.01,348.61,13.30,0000 0000 0000 0000 000000
2015-01-25 03:07:50,0.24,3.81,0.00,20.87,26.15,29.30,4.83,28.71,1011.87,2033.01,2173.94,2376.04,2578.28,349.60,347.83,13.33,0000 0000 0000 0000 000000
2015-01-25 03:12:51,0.27,3.81,0.00,20.90,26.11,29.29,4.82,28.73,1011.81,2033.04,2172.14,2374.61,2576.67,349.96,348.51,13.36,0000 0000 0000 0000 000000
2015-01-25 03:17:52,0.28,3.82,0.00,20.89,26.09,29.26,4.82,28.68,1011.74,2033.17,2170.26,2373.21,2575.08,349.82,348.41,13.39,0000 0000 0000 0000 000000
2015-01-25 03:22:54,0.36,3.83,0.00,20.89,26.06,29.26,4.88,28.74,1011.77,2033.49,2168.53,2371.76,2573.58,350.49,349.02,13.42,0000 0000 0000 0000 000000
2015-01-25 03:27:55,0.29,3.84,0.00,20.90,26.03,29.23,4.79,28.54,1011.80,2033.86,2166.66,2370.40,2572.00,350.04,348.47,13.45,0000 0000 0000 0000 000000
2015-01-25 03:32:56,0.28,3.85,0.00,20.86,26.01,29.22,4.79,28.78,1011.80,2033.96,2164.75,2368.89,2570.44,350.13,348.74,13.48,0000 0000 0000 0000 000000
2015-01-25 03:37:58,0.27,3.86,0.00,20.85,25.98,29.18,4.79,28.91,1011.78,2033.98,2162.85,2367.49,2568.77,349.76,348.28,13.51,0000 0000 0000 0000 000000
2015-01-25 03:42:59,0.26,3.87,0.00,20.84,25.96,29.18,4.82,28.60,1011.71,2033.99,2160.84,2366.11,2567.14,349.78,348.43,13.54,0000 0000 0000 0000 000000
2015-01-25 03:48:00,0.29,3.87,0.00,20.83,25.93,29.16,4.76,28.63,1011.73,2033.99,2158.97,2364.62,2565.59,349.70,348.42,13.57,0000 0000 0000 0000 000000
2015-01-25 03:53:01,0.23,3.88,0.00,20.84,25.91,29.11,4.92,28.63,1011.71,2033.99,2157.08,2363.22,2563.97,350.00,348.52,13.60,0000 0000 0000 0000 000000
2015-01-25 03:58:02,0.26,3.89,0.00,20.85,25.90,29.10,4.82,28.47,1011.78,2034.00,2155.36,2361.82,2562.48,349.69,348.20,13.63,0000 0000 0000 0000 000000
2015-01-25 04:03:04,0.26,3.90,0.00,20.81,25.87,29.09,4.84,28.37,1011.82,2034.00,2153.57,2360.41,2560.89,350.22,348.78,13.66,0000 0000 0000 0000 000000
2015-01-25 04:08:05,0.27,3.91,0.00,20.77,25.86,29.06,4.70,28.59,1011.73,2034.05,2151.71,2358.98,2559.39,349.56,348.00,13.68,0000 0000 0000 0000 000000
2015-01-25 04:13:06,0.29,3.92,0.00,20.76,25.84,29.06,4.82,28.42,1011.73,2034.24,2149.97,2357.61,2558.09,350.00,348.35,13.71,0000 0000 0000 0000 000000
2015-01-25 04:18:07,0.26,3.92,0.00,20.78,25.82,29.04,4.79,28.52,1011.75,2034.38,2148.19,2356.19,2556.55,350.02,348.66,13.74,0000 0000 0000 0000 000000
2015-01-25 04:23:09,0.35,3.93,0.00,20.75,25.80,29.02,4.76,28.40,1011.85,2034.72,2146.39,2354.72,2554.88,349.62,348.17,13.77,0000 0000 0000 0000 000000
2015-01-25 04:28:10,0.26,3.94,0.00,20.75,25.78,29.00,4.76,28.54,1011.77,2034.79,2144.58,2353.37,2553.34,349.59,348.27,13.80,0000 0000 0000 0000 000000
2015-01-25 04:33:11,0.30,3.95,0.00,20.72,25.77,28.96,4.90,28.52,1011.89,2034.94,2142.69,2351.90,2551.75,350.71,349.64,13.83,0000 0000 0000 0000 000000
2015-01-25 04:38:12,0.27,3.96,0.00,20.73,25.75,28.97,4.78,28.64,1011.89,2034.95,2140.80,2350.41,2550.16,349.77,348.66,13.86,0000 0000 0000 0000 000000
2015-01-25 04:43:14,0.27,3.97,0.00,20.71,25.73,28.95,4.83,28.68,1011.76,2034.97,2138.91,2348.92,2548.56,349.71,348.52,13.89,0000 0000 0000 0000 000000
2015-01-25 04:48:15,0.26,3.97,0.00,20.69,25.71,28.93,4.83,28.68,1011.76,2034.98,2137.14,2347.55,2547.04,350.15,348.73,13.92,0000 0000 0000 0000 000000
2015-01-25 04:53:16,0.24,3.98,0.00,20.72,25.70,28.92,4.82,28.51,1011.94,2034.98,2135.40,2346.16,2545.47,349.75,348.66,13.95,0000 0000 0000 0000 000000
2015-01-25 04:58:18,0.27,3.99,0.00,20.70,25.68,28.89,4.82,28.83,1011.76,2034.99,2133.62,2344.74,2543.91,349.92,348.65,13.98,0000 0000 0000 0000 000000
2015-01-25 05:03:19,0.27,4.00,0.00,20.70,25.67,28.87,4.83,28.73,1011.83,2034.99,2131.67,2343.27,2542.29,350.25,349.01,14.01,0000 0000 0000 0000 000000
2015-01-25 05:08:21,0.28,4.01,0.00,20.69,25.65,28.85,4.87,28.68,1011.76,2034.99,2129.82,2341.82,2540.75,350.14,348.72,14.04,0000 0000 0000 0000 000000
2015-01-25 05:13:22,0.25,4.01,0.00,20.66,25.64,28.85,4.87,28.81,1011.74,2034.99,2128.03,2340.48,2539.27,350.43,349.15,14.07,0000 0000 0000 0000 000000
2015-01-25 05:18:23,0.26,4.02,0.00,20.63,25.62,28.84,4.82,28.73,1011.74,2034.99,2126.16,2339.01,2537.70,349.95,348.70,14.09,0000 0000 0000 0000 000000
2015-01-25 05:23:24,0.27,4.03,0.00,20.67,25.61,28.83,4.89,28.79,1011.43,2035.00,2124.36,2337.62,2536.18,350.12,348.73,14.12,0000 0000 0000 0000 000000
2015-01-25 05:28:25,0.28,4.04,0.00,20.62,25.60,28.80,4.86,28.88,1011.33,2035.00,2122.44,2336.13,2534.52,350.30,349.06,14.15,0000 0000 0000 0000 000000
2015-01-25 05:33:26,0.28,4.04,0.00,20.61,25.58,28.78,4.84,28.82,1011.27,2035.00,2120.58,2334.67,2533.00,350.37,349.00,14.18,0000 0000 0000 0000 000000
2015-01-25 05:38:28,0.27,4.05,0.00,20.55,25.56,28.78,4.83,28.67,1011.39,2035.03,2118.61,2333.22,2531.45,350.06,348.86,14.21,0000 0000 0000 0000 000000
2015-01-25 05:43:29,0.31,4.06,0.00,20.56,25.55,28.78,4.85,28.96,1011.29,2035.06,2116.68,2331.66,2529.72,350.06,348.64,14.24,0000 0000 0000 0000 000000
2015-01-25 05:48:31,0.25,4.07,0.00,20.55,25.53,28.75,4.88,28.81,1011.26,2035.14,2114.89,2330.32,2528.25,350.07,348.81,14.27,0000 0000 0000 0000 000000
2015-01-25 05:53:32,0.33,4.08,0.00,20.49,25.52,28.75,4.78,28.93,1011.25,2035.38,2113.03,2328.79,2526.60,349.91,348.71,14.30,0000 0000 0000 0000 000000
2015-01-25 05:58:33,0.34,4.09,0.00,20.48,25.50,28.75,4.81,28.84,1011.19,2035.68,2111.16,2327.37,2525.00,349.78,348.56,14.33,0000 0000 0000 0000 000000
2015-01-25 06:03:35,0.29,4.10,0.00,20.50,25.49,28.71,4.79,28.63,1011.08,2035.85,2109.43,2325.87,2523.35,349.63,348.53,14.36,0000 0000 0000 0000 000000
2015-01-25 06:08:36,0.30,4.11,0.00,20.44,25.47,28.68,4.86,28.56,1011.22,2035.93,2107.47,2324.42,2521.68,350.49,349.23,14.39,0000 0000 0000 0000 000000
2015-01-25 06:13:37,0.28,4.12,0.00,20.39,25.45,28.67,4.81,28.63,1011.21,2035.98,2105.59,2322.95,2520.14,350.07,348.82,14.42,0000 0000 0000 0000 000000
2015-01-25 06:18:38,0.30,4.12,0.00,20.38,25.43,28.67,4.74,28.75,1011.09,2035.99,2103.61,2321.45,2518.49,349.08,348.06,14.45,0000 0000 0000 0000 000000
2015-01-25 06:23:40,0.28,4.13,0.00,20.38,25.42,28.64,4.79,28.69,1011.20,2035.99,2101.71,2319.99,2516.89,349.80,348.50,14.48,0000 0000 0000 0000 000000
2015-01-25 06:28:41,0.28,4.14,0.00,20.35,25.40,28.62,4.85,28.52,1011.25,2035.99,2099.79,2318.52,2515.29,349.59,348.55,14.50,0000 0000 0000 0000 000000
2015-01-25 06:33:42,0.28,4.15,0.00,20.34,25.38,28.61,4.80,28.83,1011.25,2036.00,2097.85,2317.03,2513.68,350.13,349.13,14.53,0000 0000 0000 0000 000000
2015-01-25 06:38:44,0.30,4.16,0.00,20.38,25.36,28.60,4.79,28.83,1011.27,2036.00,2095.88,2315.56,2511.99,349.37,348.32,14.56,0000 0000 0000 0000 000000
2015-01-25 06:43:45,0.26,4.17,0.00,20.32,25.35,28.57,4.77,28.60,1011.27,2036.01,2093.98,2313.99,2510.40,349.82,348.85,14.59,0000 0000 0000 0000 000000
2015-01-25 06:48:46,0.31,4.17,0.00,20.28,25.32,28.55,4.81,28.68,1011.25,2036.04,2092.04,2312.59,2508.74,349.94,349.16,14.62,0000 0000 0000 0000 000000
2015-01-25 06:53:47,0.30,4.18,0.00,20.30,25.31,28.55,4.89,28.79,1011.24,2036.03,2090.04,2310.93,2507.07,350.00,348.69,14.65,0000 0000 0000 0000 000000
2015-01-25 06:58:48,0.26,4.19,0.00,20.30,25.29,28.52,4.85,28.77,1011.24,2036.05,2088.19,2309.54,2505.51,350.17,348.96,14.68,0000 0000 0000 0000 000000
2015-01-25 07:03:49,0.29,4.20,0.00,20.23,25.27,28.52,4.82,28.63,1011.26,2036.09,2086.29,2308.04,2503.88,350.21,349.32,14.71,0000 0000 0000 0000 000000
2015-01-25 07:08:51,0.36,4.21,0.00,20.22,25.25,28.49,4.85,28.58,1011.26,2036.43,2084.40,2306.60,2502.31,349.72,348.89,14.74,0000 0000 0000 0000 000000
2015-01-25 07:13:52,0.32,4.22,0.00,20.24,25.24,28.47,4.75,28.48,1011.25,2036.72,2082.49,2305.13,2500.65,350.22,349.22,14.77,0000 0000 0000 0000 000000
2015-01-25 07:18:53,0.32,4.23,0.00,20.19,25.22,28.45,4.84,28.52,1011.24,2036.82,2080.58,2303.63,2499.07,350.26,349.50,14.80,0000 0000 0000 0000 000000
2015-01-25 07:23:54,0.29,4.24,0.00,20.19,25.20,28.45,4.78,28.48,1011.24,2036.95,2078.66,2302.34,2497.53,349.59,348.96,14.83,0000 0000 0000 0000 000000
2015-01-25 07:28:55,0.28,4.25,0.00,20.22,25.18,28.40,4.78,28.63,1011.23,2036.97,2076.78,2300.88,2496.00,349.26,348.76,14.86,0000 0000 0000 0000 000000
2015-01-25 07:33:57,0.28,4.26,0.00,20.21,25.17,28.37,4.83,28.75,1011.20,2036.99,2074.92,2299.47,2494.56,350.12,349.32,14.89,0000 0000 0000 0000 000000
2015-01-25 07:38:58,0.31,4.26,0.00,20.15,25.15,28.37,4.83,28.89,1011.23,2036.98,2072.90,2297.85,2492.91,349.51,348.66,14.91,0000 0000 0000 0000 000000
2015-01-25 07:43:59,0.27,4.27,0.00,20.16,25.13,28.37,4.84,28.82,1011.23,2036.98,2070.94,2296.37,2491.28,350.14,349.50,14.94,0000 0000 0000 0000 000000
2015-01-25 07:49:01,0.28,4.28,0.00,20.18,25.12,28.30,4.87,28.63,1011.24,2036.99,2069.10,2294.94,2489.69,350.35,349.63,14.97,0000 0000 0000 0000 000000
2015-01-25 07:54:02,0.29,4.29,0.00,20.15,25.10,28.29,4.91,28.90,1011.23,2036.99,2067.17,2293.46,2488.15,350.35,349.51,15.00,0000 0000 0000 0000 000000
2015-01-25 07:59:03,0.31,4.30,0.00,20.12,25.09,28.32,4.85,28.67,1011.23,2036.99,2065.15,2291.86,2486.45,349.62,348.90,15.03,0000 0000 0000 0000 000000
2015-01-25 08:04:05,0.28,4.31,0.00,20.15,25.07,28.28,4.87,28.68,1011.24,2037.00,2063.26,2290.49,2484.82,350.20,349.17,15.06,0000 0000 0000 0000 000000
2015-01-25 08:09:06,0.28,4.32,0.00,20.16,25.06,28.26,4.88,28.72,1011.17,2037.04,2061.44,2289.02,2483.32,350.01,349.19,15.09,0000 0000 0000 0000 000000
2015-01-25 08:14:07,0.31,4.33,0.00,20.14,25.05,28.20,4.85,28.67,1010.87,2037.04,2059.46,2287.52,2481.67,349.57,348.57,15.12,0000 0000 0000 0000 000000
2015-01-25 08:19:09,0.29,4.34,0.00,20.14,25.04,28.18,4.85,28.61,1011.09,2037.06,2057.49,2285.95,2480.03,350.18,349.42,15.15,0000 0000 0000 0000 000000
2015-01-25 08:24:10,0.35,4.34,0.00,20.17,25.02,28.16,4.85,28.66,1011.21,2037.28,2055.65,2284.55,2478.45,350.31,349.48,15.18,0000 0000 0000 0000 000000
2015-01-25 08:29:11,0.31,4.35,0.00,20.17,25.02,28.13,4.81,28.68,1011.22,2037.43,2053.76,2283.04,2476.80,350.04,349.28,15.21,0000 0000 0000 0000 000000
2015-01-25 08:34:12,0.31,4.36,0.00,20.18,25.01,28.11,4.93,28.82,1011.08,2037.54,2051.82,2281.54,2475.16,350.31,349.43,15.24,0000 0000 0000 0000 000000
2015-01-25 08:39:14,0.32,4.37,0.00,20.14,25.00,28.11,4.83,28.82,1010.90,2037.60,2049.75,2279.90,2473.55,349.94,349.02,15.27,0000 0000 0000 0000 000000
2015-01-25 08:44:15,0.36,4.38,0.00,20.17,24.99,28.12,4.87,28.74,1010.78,2037.83,2047.79,2278.44,2471.85,350.39,349.35,15.30,0000 0000 0000 0000 000000
2015-01-25 08:49:16,0.26,4.39,0.00,20.20,24.99,28.05,4.79,28.58,1010.76,2037.92,2046.21,2276.94,2470.22,349.66,348.43,15.32,0000 0000 0000 0000 000000
2015-01-25 08:54:17,0.31,4.40,0.00,20.16,24.97,28.04,4.81,28.69,1010.77,2037.93,2044.29,2275.41,2468.54,350.06,349.10,15.35,0000 0000 0000 0000 000000
2015-01-25 08:59:19,0.32,4.41,0.00,20.12,24.97,28.06,4.88,28.64,1010.79,2037.93,2042.26,2273.77,2466.79,350.17,349.26,15.38,0000 0000 0000 0000 000000
2015-01-25 09:04:20,0.27,4.42,0.00,20.14,24.97,28.03,4.90,28.82,1010.77,2037.97,2040.38,2272.37,2465.23,350.28,349.28,15.41,0000 0000 0000 0000 000000
2015-01-25 09:09:21,0.31,4.43,0.00,20.14,24.97,27.98,4.84,28.66,1010.77,2037.99,2038.44,2270.83,2463.59,349.82,348.90,15.44,0000 0000 0000 0000 000000
2015-01-25 09:14:23,0.30,4.44,0.00,20.09,24.97,28.08,4.83,28.70,1010.77,2037.98,2036.45,2269.25,2461.78,350.48,349.59,15.47,0000 0000 0000 0000 000000
2015-01-25 09:19:24,0.31,4.45,0.00,20.08,24.95,28.07,4.92,28.79,1010.76,2037.98,2034.54,2267.70,2460.16,350.39,349.52,15.50,0000 0000 0000 0000 000000
2015-01-25 09:24:25,0.30,4.45,0.00,20.13,24.95,27.97,4.80,28.63,1010.76,2037.98,2032.63,2266.16,2458.51,349.99,349.34,15.53,0000 0000 0000 0000 000000
2015-01-25 09:29:26,0.32,4.46,0.00,20.12,24.95,28.08,4.76,28.76,1010.76,2037.99,2030.70,2264.64,2456.78,349.35,348.31,15.56,0000 0000 0000 0000 000000
2015-01-25 09:34:27,0.31,4.47,0.00,20.07,24.94,28.09,4.81,28.95,1010.76,2037.99,2028.69,2263.05,2455.10,350.44,349.65,15.59,0000 0000 0000 0000 000000
2015-01-25 09:39:29,0.31,4.48,0.00,20.09,24.93,28.11,4.83,28.87,1010.76,2037.99,2026.60,2261.47,2453.41,350.41,349.53,15.62,0000 0000 0000 0000 000000
2015-01-25 09:44:30,0.33,4.49,0.00,20.05,24.92,28.08,4.83,28.79,1010.77,2037.99,2024.59,2259.81,2451.64,350.30,349.67,15.65,0000 0000 0000 0000 000000
2015-01-25 09:49:31,0.30,4.50,0.00,20.02,24.92,28.06,4.83,28.63,1010.79,2037.99,2022.59,2258.30,2449.95,349.88,349.08,15.68,0000 0000 0000 0000 000000
2015-01-25 09:54:32,0.32,4.51,0.00,20.04,24.91,28.06,4.79,28.62,1010.81,2037.99,2020.60,2256.71,2448.29,349.78,348.99,15.71,0000 0000 0000 0000 000000
2015-01-25 09:59:34,0.30,4.52,0.00,20.04,24.90,28.05,4.88,28.77,1010.90,2038.00,2018.67,2255.21,2446.59,349.89,349.24,15.73,0000 0000 0000 0000 000000
2015-01-25 10:04:35,0.33,4.53,0.00,20.03,24.90,28.06,4.82,28.70,1010.82,2038.00,2016.72,2253.64,2444.83,349.82,349.05,15.76,0000 0000 0000 0000 000000
2015-01-25 10:09:36,0.30,4.54,0.00,20.02,24.88,28.06,4.87,28.79,1010.76,2038.01,2014.69,2252.04,2443.13,349.73,348.73,15.79,0000 0000 0000 0000 000000
2015-01-25 10:14:38,0.32,4.55,0.00,20.06,24.87,28.03,4.76,28.73,1010.76,2038.01,2012.76,2250.51,2441.42,349.80,348.95,15.82,0000 0000 0000 0000 000000
2015-01-25 10:19:39,0.31,4.56,0.00,20.02,24.87,28.04,4.84,28.82,1010.74,2038.01,2010.85,2248.92,2439.72,350.11,349.33,15.85,0000 0000 0000 0000 000000
2015-01-25 10:24:40,0.31,4.57,0.00,19.99,24.86,28.02,4.87,28.82,1010.58,2038.01,2008.81,2247.41,2438.00,350.39,349.58,15.88,0000 0000 0000 0000 000000
2015-01-25 10:29:41,0.31,4.57,0.00,20.03,24.85,27.98,4.85,28.78,1010.42,2038.04,2006.88,2245.80,2436.35,350.54,349.57,15.91,0000 0000 0000 0000 000000
2015-01-25 10:34:43,0.31,4.58,0.00,20.03,24.85,28.02,4.86,28.82,1010.39,2038.03,2004.88,2244.34,2434.71,350.59,349.65,15.94,0000 0000 0000 0000 000000
2015-01-25 10:39:44,0.33,4.59,0.00,20.01,24.84,28.00,4.84,28.86,1010.32,2038.07,2002.81,2242.71,2433.00,349.73,348.82,15.97,0000 0000 0000 0000 000000
2015-01-25 10:44:45,0.31,4.60,0.00,20.00,24.82,27.98,4.89,28.78,1010.28,2038.13,2000.77,2241.13,2431.44,350.23,349.20,16.00,0000 0000 0000 0000 000000
2015-01-25 10:49:46,0.41,4.61,0.00,20.01,24.82,27.91,4.88,28.98,1010.27,2038.45,1998.84,2239.63,2429.76,350.05,349.16,16.03,0000 0000 0000 0000 000000
2015-01-25 10:54:48,0.30,4.62,0.00,19.98,24.82,27.94,4.92,28.84,1010.27,2038.58,1996.79,2238.19,2428.03,350.25,349.10,16.06,0000 0000 0000 0000 000000
2015-01-25 10:59:49,0.38,4.63,0.00,20.02,24.80,27.97,4.84,28.82,1010.27,2038.80,1994.88,2236.62,2426.33,349.66,348.74,16.09,0000 0000 0000 0000 000000
2015-01-25 11:04:50,0.31,4.64,0.00,20.02,24.80,27.91,4.78,28.73,1010.29,2038.84,1992.91,2235.05,2424.58,349.91,348.82,16.12,0000 0000 0000 0000 000000
2015-01-25 11:09:52,0.32,4.65,0.00,19.97,24.80,27.90,4.85,28.74,1010.33,2038.77,1990.92,2233.45,2422.83,350.14,349.19,16.14,0000 0000 0000 0000 000000
2015-01-25 11:14:53,0.33,4.66,0.00,19.97,24.78,27.89,4.80,28.76,1010.44,2038.92,1988.93,2231.87,2421.13,349.46,348.49,16.17,0000 0000 0000 0000 000000
2015-01-25 11:19:54,0.33,4.67,0.00,19.95,24.77,27.87,4.83,28.86,1010.49,2038.92,1986.97,2230.29,2419.37,349.84,349.07,16.20,0000 0000 0000 0000 000000
2015-01-25 11:24:55,0.33,4.68,0.00,19.96,24.77,27.89,4.86,28.83,1010.33,2038.95,1984.96,2228.71,2417.66,350.39,349.60,16.23,0000 0000 0000 0000 000000
2015-01-25 11:29:56,0.28,4.69,0.00,19.95,24.76,27.87,4.84,28.71,1010.39,2038.98,1983.16,2227.21,2416.03,349.82,348.78,16.26,0000 0000 0000 0000 000000
2015-01-25 11:34:58,0.32,4.70,0.00,20.04,24.75,27.82,4.80,28.73,1010.38,2038.97,1981.39,2225.65,2414.32,349.89,348.88,16.29,0000 0000 0000 0000 000000
2015-01-25 11:39:59,0.32,4.71,0.00,20.03,24.75,27.76,4.88,28.80,1010.35,2038.97,1979.32,2224.12,2412.58,350.69,349.99,16.32,0000 0000 0000 0000 000000
2015-01-25 11:45:01,0.32,4.72,0.00,19.99,24.74,27.77,4.82,28.84,1010.37,2038.96,1977.38,2222.59,2410.84,349.97,348.97,16.35,0000 0000 0000 0000 000000
2015-01-25 11:50:02,0.31,4.73,0.00,19.98,24.73,27.75,4.89,28.75,1010.29,2038.98,1975.43,2221.01,2409.22,349.87,348.95,16.38,0000 0000 0000 0000 000000
2015-01-25 11:55:03,0.34,4.74,0.00,20.00,24.72,27.72,4.89,28.83,1010.28,2038.99,1973.45,2219.45,2407.54,350.67,349.45,16.41,0000 0000 0000 0000 000000
2015-01-25 12:00:05,0.32,4.75,0.00,19.97,24.72,27.70,4.79,28.88,1010.27,2038.99,1971.55,2217.87,2405.82,349.69,348.88,16.44,0000 0000 0000 0000 000000
2015-01-25 12:05:06,0.31,4.76,0.00,19.98,24.72,27.72,4.90,28.92,1010.27,2038.99,1969.54,2216.37,2404.17,350.41,349.28,16.47,0000 0000 0000 0000 000000
2015-01-25 12:10:08,0.33,4.77,0.00,19.98,24.72,27.65,4.82,28.81,1010.26,2038.99,1967.69,2214.79,2402.49,349.50,348.45,16.50,0000 0000 0000 0000 000000
2015-01-25 12:15:09,0.31,4.78,0.00,20.02,24.72,27.70,4.78,28.78,1010.27,2038.99,1965.75,2213.30,2400.80,349.85,348.83,16.53,0000 0000 0000 0000 000000
2015-01-25 12:20:10,0.33,4.79,0.00,20.00,24.71,27.69,4.79,28.73,1010.27,2038.99,1963.79,2211.73,2399.16,350.00,348.98,16.55,0000 0000 0000 0000 000000
2015-01-25 12:25:12,0.30,4.80,0.00,20.00,24.70,27.67,4.86,28.88,1010.26,2038.99,1961.83,2210.23,2397.46,349.90,348.96,16.58,0000 0000 0000 0000 000000
2015-01-25 12:30:13,0.34,4.81,0.00,20.00,24.70,27.65,4.85,28.81,1010.25,2038.99,1959.85,2208.66,2395.73,350.19,349.31,16.61,0000 0000 0000 0000 000000
2015-01-25 12:35:14,0.30,4.82,0.00,20.02,24.70,27.64,4.89,28.96,1010.25,2038.99,1957.91,2207.11,2394.02,349.91,348.96,16.64,0000 0000 0000 0000 000000
2015-01-25 12:40:16,0.33,4.83,0.00,20.02,24.70,27.57,4.88,28.91,1010.27,2038.99,1955.89,2205.49,2392.31,350.11,348.94,16.67,0000 0000 0000 0000 000000
2015-01-25 12:45:17,0.32,4.84,0.00,20.00,24.70,27.58,4.96,28.85,1010.26,2038.99,1953.98,2203.92,2390.62,350.96,349.95,16.70,0000 0000 0000 0000 000000
2015-01-25 12:50:18,0.31,4.84,0.00,20.03,24.70,27.56,4.78,28.82,1010.25,2038.99,1952.06,2202.40,2388.87,349.61,348.59,16.73,0000 0000 0000 0000 000000
2015-01-25 12:55:20,0.33,4.85,0.00,20.03,24.70,27.54,4.81,28.83,1010.23,2038.99,1950.09,2200.81,2387.17,349.44,348.57,16.76,0000 0000 0000 0000 000000
2015-01-25 13:00:21,0.32,4.86,0.00,20.03,24.70,27.60,4.86,28.73,1010.25,2038.99,1948.09,2199.26,2385.44,350.25,348.89,16.79,0000 0000 0000 0000 000000